Weather History for Zacatecas Airport, Mexico

Change the Weather History Date:

Sunday, October 23, 2011

  Actual Average Record
Temperature  
Mean Temperature 55 °F -  
Max Temperature 75 °F 72 °F 82 °F (2001)
Min Temperature 35 °F 42 °F 32 °F (1999)
Degree Days  
Heating Degree Days 10    
Growing Degree Days 5 (Base 50)    
Moisture  
Dew Point 31 °F    
Average Humidity 40    
Maximum Humidity 81    
Minimum Humidity 21    
Precipitation  
Precipitation 0.00 in - - ()
Sea Level Pressure  
Sea Level Pressure 30.29 in    
Wind  
Wind Speed 6 mph ()    
Max Wind Speed 21 mph    
Max Gust Speed 23 mph    
Visibility 10.0 miles    
Events      
Averages and records for this station are not official NWS values.
T = Trace of Precipitation, MM = Missing Value Source: Averaged Metar Reports

Daily Weather History Graph

Daily Weather History Graph

Search for Another Location

Airport:

Trip Planner

Search our weather history database for the weather conditions in past years. The results will help you decide how hot, cold, wet, or windy it might be!

Date:

Astronomy

Oct. 23, 2011 Rise Set
Actual Time 7:50 AM CDT 7:18 PM CDT
Civil Twilight 7:28 AM CDT 7:41 PM CDT
Nautical Twilight 7:01 AM CDT 8:08 PM CDT
Astronomical Twilight 6:35 AM CDT 8:34 PM CDT
Moon 4:23 AM CDT (10/23) 4:52 PM CDT (10/23)
Length of Visible Light 12h 13m
Length of Day
11h 28m
Waning Crescent, 14% of the Moon is Illuminated
Oct 23
Waning Crescent
Oct 26
New
Nov 2
First Quarter
Nov 10
Full
Nov 18
Last Quarter

Hourly Weather History & Observations

Time (CDT) Temp. Windchill Dew Point Humidity Pressure Visibility Wind Dir Wind Speed Gust Speed Precip Events Conditions
12:42 AM 48.2 °F - 30.2 °F 50% 30.28 in 10.0 mi SSW 5.8 mph - N/A   Scattered Clouds
1:41 AM 46.4 °F 43.5 °F 30.2 °F 53% 30.26 in 10.0 mi SSW 5.8 mph - N/A   Scattered Clouds
2:41 AM 42.8 °F 39.3 °F 10.4 °F 27% 30.26 in 10.0 mi East 5.8 mph - N/A   Scattered Clouds
3:41 AM 41.0 °F 39.0 °F 28.4 °F 61% 30.26 in 10.0 mi North 3.5 mph - N/A   Scattered Clouds
4:41 AM 39.2 °F - 28.4 °F 65% 30.25 in 10.0 mi Calm Calm - N/A   Scattered Clouds
5:41 AM 37.4 °F 34.9 °F 28.4 °F 70% 30.26 in 10.0 mi SW 3.5 mph - N/A   Scattered Clouds
6:52 AM 39.2 °F 37.0 °F 30.2 °F 70% 30.28 in 10.0 mi South 3.5 mph - N/A   Scattered Clouds
7:44 AM 35.6 °F - 30.2 °F 81% 30.28 in 10.0 mi Calm Calm - N/A   Partly Cloudy
8:45 AM 42.8 °F - 32.0 °F 66% 30.30 in 10.0 mi Calm Calm - N/A   Partly Cloudy
9:50 AM 55.4 °F - 33.8 °F 44% 30.33 in 10.0 mi Calm Calm - N/A   Partly Cloudy
10:41 AM 64.4 °F - 35.6 °F 34% 30.34 in 10.0 mi NNE 3.5 mph - N/A   Scattered Clouds
11:42 AM 69.8 °F - 32.0 °F 25% 30.34 in 10.0 mi East 11.5 mph - N/A   Clear
12:42 PM 71.6 °F - 32.0 °F 23% 30.32 in 10.0 mi ESE 11.5 mph 23.0 mph N/A   Clear
1:42 PM 73.4 °F - 32.0 °F 22% 30.29 in 10.0 mi SE 11.5 mph - N/A   Scattered Clouds
2:42 PM 75.2 °F - 32.0 °F 21% 30.28 in 10.0 mi East 16.1 mph - N/A   Scattered Clouds
3:41 PM 75.2 °F - 32.0 °F 21% 30.24 in 10.0 mi ENE 16.1 mph - N/A   Mostly Cloudy
4:41 PM 75.2 °F - 32.0 °F 21% 30.24 in 10.0 mi ENE 5.8 mph 18.4 mph N/A   Mostly Cloudy
5:41 PM 73.4 °F - 32.0 °F 22% 30.24 in 10.0 mi East 10.4 mph - N/A   Mostly Cloudy
6:41 PM 71.6 °F - 32.0 °F 23% 30.25 in 10.0 mi East 9.2 mph - N/A   Mostly Cloudy
7:41 PM 64.4 °F - 32.0 °F 30% 30.28 in 10.0 mi East 6.9 mph - N/A   Mostly Cloudy
8:41 PM 62.6 °F - 32.0 °F 32% 30.29 in 10.0 mi ESE 8.1 mph - N/A   Scattered Clouds
9:49 PM 60.8 °F - 32.0 °F 34% 30.32 in 10.0 mi ESE 10.4 mph - N/A   Scattered Clouds
10:57 PM 62.6 °F - 32.0 °F 32% 30.33 in 10.0 mi SSE 11.5 mph - N/A   Scattered Clouds
11:48 PM 60.8 °F - 33.8 °F 36% 30.33 in 10.0 mi SE 20.7 mph - N/A   Scattered Clouds